Weather History for Sexton Summit, OR

Change the Weather History Date:

Wednesday, April 3, 2013

  Actual Average Record
Temperature  
Mean Temperature 50 °F -  
Max Temperature 57 °F 44 °F 66 °F (2002)
Min Temperature 44 °F 31 °F 24 °F (1999)
Degree Days  
Heating Degree Days 14    
Moisture  
Dew Point 42 °F    
Average Humidity 74    
Maximum Humidity 86    
Minimum Humidity 59    
Precipitation  
Precipitation 0.00 in - - ()
Sea Level Pressure  
Sea Level Pressure 30.03 in    
Wind  
Wind Speed 6 mph (SE)    
Max Wind Speed 12 mph    
Max Gust Speed -    
Visibility 10 miles    
Events Rain    
Averages and records for this station are not official NWS values.
T = Trace of Precipitation, MM = Missing Value Source: NWS Daily Summary

Daily Weather History Graph

Daily Weather History Graph

Search for Another Location

Airport:

Trip Planner

Search our weather history database for the weather conditions in past years. The results will help you decide how hot, cold, wet, or windy it might be!

Date:

Astronomy

Apr. 03, 2013 Rise Set
Actual Time 6:51 AM PDT 7:42 PM PDT
Civil Twilight 6:23 AM PDT 8:10 PM PDT
Nautical Twilight 5:49 AM PDT 8:44 PM PDT
Astronomical Twilight 5:13 AM PDT 9:20 PM PDT
Moon 2:45 AM PDT (4/3) 12:52 PM PDT (4/3)
Length of Visible Light 13h 47m
Length of Day
12h 50m
Last Quarter, 43% of the Moon is Illuminated
Apr 3
Last Quarter
Apr 10
New
Apr 18
First Quarter
Apr 25
Full
May 2
Last Quarter

Hourly Weather History & Observations

Time (PDT) Temp. Windchill Dew Point Humidity Pressure Visibility Wind Dir Wind Speed Gust Speed Precip Events Conditions
12:56 AM 48.0 °F - 39.0 °F 71% 30.12 in 10.0 mi South 3.5 mph - N/A   Clear
1:56 AM 46.0 °F 43.1 °F 41.0 °F 83% 30.12 in 10.0 mi SSE 5.8 mph - N/A   Clear
2:56 AM 46.0 °F 43.1 °F 39.9 °F 79% 30.11 in 10.0 mi SE 5.8 mph - N/A   Clear
3:56 AM 45.0 °F 40.6 °F 39.9 °F 82% 30.09 in 10.0 mi SE 8.1 mph - N/A   Clear
4:56 AM 45.0 °F 40.6 °F 41.0 °F 86% 30.09 in 10.0 mi ESE 8.1 mph - N/A   Clear
5:56 AM 45.0 °F 40.1 °F 39.0 °F 80% 30.08 in 10.0 mi ESE 9.2 mph - N/A   Clear
6:56 AM 44.1 °F 38.1 °F 39.0 °F 82% 30.09 in 10.0 mi ESE 11.5 mph - N/A   Clear
7:56 AM 45.0 °F 39.7 °F 39.9 °F 82% 30.09 in 10.0 mi ESE 10.4 mph - N/A   Clear
8:56 AM 48.0 °F - 42.1 °F 80% 30.07 in 10.0 mi ESE 9.2 mph - N/A   Clear
9:56 AM 48.0 °F - 41.0 °F 77% 30.09 in 10.0 mi SE 8.1 mph - N/A   Clear
10:56 AM 51.1 °F - 42.1 °F 71% 30.09 in 10.0 mi SSE 6.9 mph - N/A   Clear
11:56 AM 53.1 °F - 42.1 °F 66% 30.07 in 10.0 mi South 6.9 mph - N/A   Clear
12:56 PM 55.0 °F - 43.0 °F 64% 30.05 in 10.0 mi SSE 4.6 mph - N/A   Partly Cloudy
1:56 PM 55.0 °F - 42.1 °F 62% 30.04 in 10.0 mi Calm Calm - 0.00 in   Clear
2:56 PM 57.0 °F - 44.1 °F 62% 30.02 in 10.0 mi Variable 3.5 mph - N/A   Clear
3:56 PM 55.9 °F - 44.1 °F 64% 30.00 in 10.0 mi ESE 3.5 mph - N/A   Clear
4:56 PM 55.9 °F - 42.1 °F 60% 29.99 in 10.0 mi Calm Calm - N/A   Clear
5:56 PM 55.0 °F - 41.0 °F 59% 29.98 in 10.0 mi SW 3.5 mph - N/A   Mostly Cloudy
6:56 PM 53.1 °F - 41.0 °F 64% 29.98 in 10.0 mi NW 3.5 mph - N/A   Overcast
7:56 PM 51.1 °F - 43.0 °F 74% 29.98 in 10.0 mi NW 3.5 mph - N/A   Overcast
8:56 PM 50.0 °F - 44.1 °F 80% 29.95 in 10.0 mi NW 6.9 mph - N/A   Overcast
9:56 PM 48.0 °F - 44.1 °F 86% 29.94 in 10.0 mi NNW 6.9 mph - 0.00 in Rain Light Rain
10:56 PM 50.0 °F - 43.0 °F 77% 29.88 in 10.0 mi NNE 8.1 mph - 0.00 in   Overcast
11:56 PM 50.0 °F - 43.0 °F 77% 29.87 in 10.0 mi Calm Calm - N/A   Mostly Cloudy